When you browse on this site, cookies collect data to enhance your experience and personalize the content and advertising you see.
Visit our Privacy Policy to learn more. By continuing to use the site, you agree to this use of cookies and data.
  • Em Portugal
  • Lista de países
  • Para 7 dias
  • Temperatura da água
  • Mapa do tempo
  • Widgets de tempo
  • user-avatar
    Iniciar Sessão

    Previsão horária em Boroviki

    Hoje, 26 Fevereiro, Quarta-feira

    Tempo Temperatura Precipitação Vento Pressão Humidade
    00:00 -2°C° 0.5 mm 4 m/s 739 mmHg 96%
    01:00 -2°C° 0.5 mm 4 m/s 738 mmHg 97%
    02:00 0°C° 0 mm 3 m/s 737 mmHg 97%
    03:00 0°C° 0.2 mm 3 m/s 737 mmHg 96%
    04:00 0°C° 0.2 mm 3 m/s 736 mmHg 96%
    05:00 0°C° 0.2 mm 3 m/s 736 mmHg 95%
    06:00 0°C° 0.1 mm 3 m/s 736 mmHg 94%
    07:00 0°C° 0.1 mm 3 m/s 736 mmHg 93%
    08:00 0°C° 0 mm 3 m/s 736 mmHg 90%
    09:00 0°C° 0.2 mm 3 m/s 736 mmHg 89%
    10:00 +1°C° 0.2 mm 3 m/s 737 mmHg 87%
    11:00 +1°C° 0.2 mm 3 m/s 737 mmHg 86%
    12:00 +1°C° 0 mm 3 m/s 737 mmHg 85%
    13:00 +1°C° 0 mm 3 m/s 737 mmHg 84%
    14:00 +2°C° 0 mm 3 m/s 737 mmHg 85%
    15:00 +1°C° 0 mm 3 m/s 737 mmHg 87%
    16:00 +1°C° 0 mm 3 m/s 738 mmHg 88%
    17:00 +2°C° 0 mm 2 m/s 738 mmHg 89%
    18:00 +1°C° 0 mm 2 m/s 738 mmHg 91%
    19:00 +1°C° 0 mm 2 m/s 739 mmHg 92%
    20:00 -1°C° 0 mm 2 m/s 739 mmHg 94%
    21:00 -1°C° 0 mm 2 m/s 739 mmHg 94%
    22:00 -1°C° 0 mm 2 m/s 739 mmHg 94%
    23:00 -2°C° 0 mm 2 m/s 739 mmHg 94%

    Amanhã, 27 Fevereiro, Quinta-feira

    Tempo Temperatura Precipitação Vento Pressão Humidade
    00:00 -1°C° 0 mm 2 m/s 740 mmHg 94%
    01:00 +1°C° 0 mm 1 m/s 740 mmHg 94%
    02:00 +1°C° 0 mm 1 m/s 740 mmHg 94%
    03:00 -1°C° 0.6 mm 2 m/s 740 mmHg 95%
    04:00 -1°C° 0.6 mm 2 m/s 740 mmHg 96%
    05:00 -1°C° 0.6 mm 3 m/s 739 mmHg 98%
    06:00 -1°C° 1.6 mm 3 m/s 739 mmHg 98%
    07:00 -2°C° 1.6 mm 4 m/s 739 mmHg 97%
    08:00 -2°C° 1.6 mm 4 m/s 739 mmHg 97%
    09:00 -2°C° 1.4 mm 4 m/s 739 mmHg 97%
    10:00 -2°C° 1.4 mm 4 m/s 739 mmHg 97%
    11:00 -2°C° 1.4 mm 4 m/s 739 mmHg 97%
    12:00 -2°C° 1.4 mm 4 m/s 739 mmHg 97%
    13:00 -2°C° 1.4 mm 4 m/s 739 mmHg 98%
    14:00 -2°C° 1.4 mm 4 m/s 739 mmHg 98%
    15:00 -2°C° 1 mm 4 m/s 739 mmHg 98%
    16:00 -1°C° 1 mm 3 m/s 739 mmHg 98%
    17:00 -1°C° 1 mm 3 m/s 738 mmHg 98%
    18:00 -1°C° 1 mm 3 m/s 739 mmHg 97%
    19:00 -1°C° 1 mm 2 m/s 739 mmHg 97%
    20:00 -2°C° 1 mm 2 m/s 739 mmHg 97%
    21:00 -2°C° 0.5 mm 2 m/s 739 mmHg 97%
    22:00 -2°C° 0.5 mm 2 m/s 739 mmHg 97%
    23:00 0°C° 0.5 mm 1 m/s 739 mmHg 97%

    Depois de amanhã, 28 Fevereiro, Sexta-feira

    Tempo Temperatura Precipitação Vento Pressão Humidade
    00:00 -1°C° 0.2 mm 1 m/s 739 mmHg 97%
    01:00 -1°C° 0.2 mm 1 m/s 739 mmHg 97%
    02:00 -1°C° 0.2 mm 1 m/s 739 mmHg 97%
    03:00 -2°C° 0.1 mm 1 m/s 739 mmHg 97%
    04:00 -2°C° 0.1 mm 1 m/s 739 mmHg 97%
    05:00 -2°C° 0.1 mm 1 m/s 739 mmHg 97%
    06:00 -2°C° 0.1 mm 1 m/s 739 mmHg 97%
    07:00 -2°C° 0.1 mm 1 m/s 740 mmHg 97%
    08:00 -2°C° 0.1 mm 1 m/s 740 mmHg 97%
    09:00 -1°C° 0.1 mm 1 m/s 740 mmHg 96%
    10:00 0°C° 0.1 mm 1 m/s 740 mmHg 95%
    11:00 0°C° 0.1 mm 1 m/s 740 mmHg 94%
    12:00 +1°C° 0 mm 1 m/s 741 mmHg 94%
    13:00 +1°C° 0 mm 1 m/s 741 mmHg 94%
    14:00 +1°C° 0 mm 1 m/s 742 mmHg 94%
    15:00 -1°C° 0.1 mm 2 m/s 742 mmHg 94%
    16:00 -2°C° 0.1 mm 2 m/s 742 mmHg 95%
    17:00 -2°C° 0.1 mm 2 m/s 742 mmHg 95%
    18:00 -3°C° 0.1 mm 2 m/s 743 mmHg 95%
    19:00 -3°C° 0.1 mm 2 m/s 743 mmHg 95%
    20:00 -4°C° 0.1 mm 2 m/s 744 mmHg 95%
    21:00 -4°C° 0.1 mm 2 m/s 744 mmHg 95%
    22:00 -5°C° 0.1 mm 2 m/s 745 mmHg 94%
    23:00 -5°C° 0.1 mm 2 m/s 745 mmHg 94%

    29 Fevereiro, Sábado

    Tempo Temperatura Precipitação Vento Pressão Humidade
    00:00 -6°C° 0 mm 2 m/s 746 mmHg 93%
    01:00 -6°C° 0 mm 2 m/s 746 mmHg 93%
    02:00 -7°C° 0 mm 2 m/s 747 mmHg 92%
    03:00 -7°C° 0 mm 2 m/s 747 mmHg 92%
    04:00 -7°C° 0 mm 2 m/s 747 mmHg 92%
    05:00 -7°C° 0 mm 2 m/s 748 mmHg 92%
    06:00 -8°C° 0 mm 2 m/s 748 mmHg 92%
    07:00 -8°C° 0 mm 2 m/s 748 mmHg 92%
    08:00 -8°C° 0 mm 2 m/s 749 mmHg 92%
    09:00 -7°C° 0 mm 3 m/s 749 mmHg 89%
    10:00 -6°C° 0 mm 3 m/s 750 mmHg 86%
    11:00 -4°C° 0 mm 3 m/s 750 mmHg 83%
    12:00 -4°C° 0 mm 3 m/s 750 mmHg 81%
    13:00 -2°C° 0 mm 3 m/s 751 mmHg 79%
    14:00 -2°C° 0 mm 2 m/s 751 mmHg 77%
    15:00 -2°C° 0 mm 2 m/s 751 mmHg 79%
    16:00 -1°C° 0 mm 1 m/s 752 mmHg 82%
    17:00 -2°C° 0 mm 1 m/s 752 mmHg 84%
    18:00 -2°C° 0 mm 1 m/s 752 mmHg 85%
    19:00 -5°C° 0 mm 2 m/s 753 mmHg 86%
    20:00 -6°C° 0 mm 2 m/s 753 mmHg 87%
    21:00 -6°C° 0 mm 2 m/s 753 mmHg 88%
    22:00 -7°C° 0 mm 3 m/s 753 mmHg 89%
    23:00 -7°C° 0 mm 3 m/s 753 mmHg 90%

    1 Março, Domingo

    Tempo Temperatura Precipitação Vento Pressão Humidade
    00:00 -6°C° 0 mm 3 m/s 753 mmHg 90%
    01:00 -7°C° 0 mm 4 m/s 753 mmHg 90%
    02:00 -7°C° 0 mm 4 m/s 753 mmHg 89%
    03:00 -6°C° 0 mm 5 m/s 752 mmHg 87%
    04:00 -6°C° 0 mm 5 m/s 752 mmHg 85%
    05:00 -6°C° 0 mm 6 m/s 752 mmHg 83%
    06:00 -5°C° 0 mm 6 m/s 751 mmHg 82%
    07:00 -6°C° 0 mm 7 m/s 751 mmHg 80%
    08:00 -4°C° 0 mm 7 m/s 750 mmHg 79%
    09:00 -3°C° 0 mm 7 m/s 750 mmHg 77%
    10:00 -2°C° 0 mm 8 m/s 749 mmHg 75%
    11:00 -1°C° 0 mm 8 m/s 749 mmHg 73%
    12:00 -1°C° 0 mm 8 m/s 749 mmHg 75%
    13:00 -1°C° 0 mm 8 m/s 748 mmHg 77%
    14:00 -1°C° 0 mm 8 m/s 748 mmHg 79%
    15:00 -1°C° 0 mm 7 m/s 748 mmHg 79%
    16:00 -1°C° 0 mm 7 m/s 748 mmHg 80%
    17:00 -1°C° 0 mm 7 m/s 747 mmHg 80%
    18:00 -1°C° 0.1 mm 7 m/s 747 mmHg 85%
    19:00 -1°C° 0.1 mm 7 m/s 747 mmHg 91%
    20:00 -2°C° 0.1 mm 7 m/s 747 mmHg 96%
    21:00 -2°C° 0.5 mm 7 m/s 747 mmHg 96%
    22:00 -2°C° 0.5 mm 7 m/s 747 mmHg 97%
    23:00 -2°C° 0.5 mm 6 m/s 746 mmHg 97%

    2 Março, Segunda-feira

    Tempo Temperatura Precipitação Vento Pressão Humidade
    00:00 -2°C° 0.7 mm 6 m/s 746 mmHg 97%
    01:00 -2°C° 0.7 mm 6 m/s 746 mmHg 97%
    02:00 -1°C° 0.7 mm 6 m/s 746 mmHg 98%
    03:00 0°C° 0.2 mm 5 m/s 746 mmHg 98%
    04:00 0°C° 0.2 mm 5 m/s 746 mmHg 98%
    05:00 0°C° 0.2 mm 4 m/s 746 mmHg 98%
    06:00 0°C° 0 mm 4 m/s 746 mmHg 98%
    07:00 0°C° 0 mm 4 m/s 746 mmHg 97%
    08:00 0°C° 0 mm 4 m/s 746 mmHg 97%
    09:00 0°C° 0 mm 4 m/s 746 mmHg 97%
    10:00 0°C° 0 mm 4 m/s 746 mmHg 97%
    11:00 +1°C° 0 mm 4 m/s 746 mmHg 98%
    12:00 +1°C° 0 mm 4 m/s 746 mmHg 97%
    13:00 +1°C° 0 mm 4 m/s 746 mmHg 97%
    14:00 +2°C° 0 mm 3 m/s 746 mmHg 96%
    15:00 +2°C° 0 mm 3 m/s 746 mmHg 96%
    16:00 +1°C° 0 mm 4 m/s 746 mmHg 95%
    17:00 +1°C° 0 mm 4 m/s 746 mmHg 95%
    18:00 0°C° 0 mm 4 m/s 746 mmHg 94%
    19:00 0°C° 0 mm 4 m/s 746 mmHg 93%
    20:00 0°C° 0 mm 5 m/s 746 mmHg 92%
    21:00 0°C° 0.1 mm 4 m/s 747 mmHg 93%
    22:00 -1°C° 0.1 mm 4 m/s 747 mmHg 94%
    23:00 -1°C° 0.1 mm 4 m/s 747 mmHg 96%
    Mostrar mais